Погода в Салазгори

Россия / Республика Мордовия     54°07′18″N   43°09′16″E
темп.,
°C
ветер,
м/с
пор.,
м/с
влажн.,
%
обл.,
%
осадки,
мм/ч
давл.,
гПа
погр.,
м
11 мая, вт
вт1100:00+10св7179453 0.1 1020408
03:00+9св7179667 0.1 1021400
06:00+10св71595100 0.0 1021377
09:00+15всв71281100 0.0 1022568
12:00+17юв6973100 0.2 10241025
15:00+16юв577286 0.5 1025921
18:00+15ююв366822 0.0 1026412
21:00+11юз2274100 0.0 102811
12 мая, ср
ср1200:00+12ссз2373100 0.0 102754
03:00+11ссв2382100 0.1 102684
06:00+12св41192100 0.1 1024316
09:00+14в71683100 0.1 1023748
12:00+14в81685100 0.9 10221091
15:00+16вюв7148099 1.1 10221166
18:00+15ю4887100 0.6 1023487
21:00+14всв2293100 0.8 102351
13 мая, чт
чт1300:00+13вюв4109496 0.1 1023276
03:00+13вюв499597 0.1 1022218
06:00+13в5118673 0.0 1021273
09:00+15вюв71472100 0.1 1020532
12:00+17юв7127794 0.1 10191081
15:00+17ююв5108385 0.3 1019788
18:00+18ююв598224 1.9 1018685
21:00+15ююв37944 4.5 1018159
14 мая, пт
пт1400:00+12юз229834 5.0 101939
03:00+12ссв0097100 5.0 101910
06:00+14всв1193100 0.0 102049
09:00+18вюв228296 0.0 1020386
12:00+22ююв346493 0.0 1019910
15:00+23юв455783 0.0 10191266
18:00+22в36747 0.0 1017155
21:00+18юв4118326 0.0 1017197
15 мая, сб
сб1500:00+17ююв51283100 0.0 1016233
03:00+15юв51180100 0.0 1016182
06:00+16ююв5137699 0.1 1016269
09:00+20ююв71562100 0.1 1015573
12:00+24ююв81453100 0.0 10151098
15:00+25ю8135390 0.0 10141336
18:00
21:00+18ююв4137997 0.0 1013278